Location: Newark
(48.1500°N, 13.1167°E)
Time: 06:59:23
(UTC+00:00)

KAITUO 1B - Pass Details

Date: 30 November 2021
Orbit: 486 x 507 km, 97.4° (Epoch: 18 January)

Event Time Altitude Azimuth Distance (km) Brightness Sun altitude
Rises 16:47:35 0° 170° (S) 2,589 ? -14.6°
Reaches altitude 10° 16:49:39 10° 172° (S) 1,713 ? -14.9°
Maximum altitude 16:53:21 73° 258° (WSW) 536 ? -15.5°
Drops below altitude 10° 16:57:05 10° 344° (NNW) 1,740 ? -16.1°
Sets 16:59:12 0° 346° (NNW) 2,633 ? -16.5°
